FRS153 LOLU-LOLH

Flight info

Callsign FRS153
Flight time 0h 28m
Altitude 2500
Route DCT
Aircraft FK9/L-SDGRY/S

Departure

Time 2026-05-05 18:46
Airport Gmunden-Laakirchen Airfield (LOLU)

Arrival

Time 2026-05-05 19:15
Airport Hofkirchen Airfield (LOLH)
Time Latitude Longitude Altitude Speed Heading
2026-05-05 18:35 47.95174 13.86602 1650 ft 0 kts 160°
2026-05-05 18:43 47.95164 13.86593 1650 ft 3 kts 211°
2026-05-05 18:44 47.95135 13.86634 1654 ft 17 kts 80°
2026-05-05 18:44 47.95172 13.86872 1662 ft 25 kts 76°
2026-05-05 18:44 47.95197 13.87037 1672 ft 11 kts 81°
2026-05-05 18:44 47.95208 13.87085 1682 ft 0 kts 315°
2026-05-05 18:45 47.95209 13.87080 1682 ft 0 kts 263°
2026-05-05 18:45 47.95205 13.87058 1682 ft 18 kts 256°
2026-05-05 18:45 47.95134 13.86571 1697 ft 66 kts 259°
2026-05-05 18:45 47.95041 13.85841 1813 ft 71 kts 264°
2026-05-05 18:46 47.94962 13.85152 1979 ft 68 kts 264°
2026-05-05 18:46 47.94941 13.84475 2097 ft 63 kts 291°
2026-05-05 18:46 47.95279 13.84103 2225 ft 70 kts 348°
2026-05-05 18:46 47.95799 13.84182 2282 ft 76 kts 15°
2026-05-05 18:47 47.96088 13.84841 2366 ft 90 kts 84°
2026-05-05 18:47 47.96130 13.85821 2391 ft 96 kts 81°
2026-05-05 18:47 47.96183 13.86819 2427 ft 99 kts 79°
2026-05-05 18:47 47.96275 13.87833 2511 ft 97 kts 78°
2026-05-05 18:48 47.96397 13.88840 2513 ft 100 kts 76°
2026-05-05 18:48 47.96538 13.89825 2558 ft 95 kts 71°
2026-05-05 18:48 47.96685 13.90798 2586 ft 100 kts 70°
2026-05-05 18:48 47.96872 13.91742 2719 ft 89 kts 57°
2026-05-05 18:49 47.97212 13.92509 2662 ft 96 kts 43°
2026-05-05 18:49 47.97662 13.93229 2660 ft 95 kts 32°
2026-05-05 18:49 47.98158 13.93855 2703 ft 91 kts 29°
2026-05-05 18:49 47.98655 13.94372 2778 ft 81 kts 20°
2026-05-05 18:50 47.99165 13.94833 2789 ft 89 kts 20°
2026-05-05 18:50 47.99721 13.95131 2837 ft 81 kts 352°
2026-05-05 18:50 48.00190 13.94815 2853 ft 73 kts 303°
2026-05-05 18:50 48.00466 13.94205 2899 ft 69 kts 327°
2026-05-05 18:51 48.00960 13.94345 2921 ft 85 kts 31°
2026-05-05 18:51 48.01302 13.95199 2837 ft 104 kts 57°
2026-05-05 18:51 48.01626 13.96165 2802 ft 104 kts 56°
2026-05-05 18:51 48.01923 13.97157 2773 ft 107 kts 61°
2026-05-05 18:52 48.02221 13.98177 2758 ft 106 kts 59°
2026-05-05 18:52 48.02542 13.99169 2726 ft 106 kts 56°
2026-05-05 18:52 48.02909 14.00107 2696 ft 102 kts 52°
2026-05-05 18:52 48.03293 14.00968 2682 ft 99 kts 47°
2026-05-05 18:53 48.03707 14.01790 2681 ft 98 kts 41°
2026-05-05 18:53 48.04157 14.02551 2712 ft 98 kts 38°
2026-05-05 18:53 48.04632 14.03288 2715 ft 98 kts 36°
2026-05-05 18:53 48.05114 14.03969 2730 ft 92 kts 34°
2026-05-05 18:54 48.05584 14.04615 2715 ft 92 kts 32°
2026-05-05 18:54 48.06059 14.05244 2687 ft 96 kts 33°
2026-05-05 18:54 48.06567 14.05923 2644 ft 98 kts 30°
2026-05-05 18:54 48.07092 14.06555 2637 ft 95 kts 37°
2026-05-05 18:55 48.07587 14.07164 2692 ft 86 kts 35°
2026-05-05 18:55 48.08072 14.07745 2687 ft 90 kts 33°
2026-05-05 18:55 48.08566 14.08334 2686 ft 92 kts 36°
2026-05-05 18:55 48.09089 14.08945 2638 ft 94 kts 37°
2026-05-05 18:56 48.09576 14.09574 2563 ft 93 kts 43°
2026-05-05 18:56 48.10024 14.10255 2459 ft 91 kts 42°
2026-05-05 18:56 48.10454 14.10865 2464 ft 81 kts 39°
2026-05-05 18:56 48.10848 14.11459 2464 ft 82 kts 38°
2026-05-05 18:57 48.11040 14.12222 2441 ft 86 kts 103°
2026-05-05 18:57 48.10677 14.12925 2421 ft 84 kts 156°
2026-05-05 18:57 48.10182 14.13368 2465 ft 80 kts 158°
2026-05-05 18:57 48.09656 14.13720 2453 ft 85 kts 166°
2026-05-05 18:58 48.09109 14.14108 2348 ft 88 kts 147°
2026-05-05 18:58 48.08673 14.14716 2322 ft 85 kts 125°
2026-05-05 18:58 48.08366 14.15475 2311 ft 86 kts 117°
2026-05-05 18:58 48.08204 14.16323 2329 ft 85 kts 96°
2026-05-05 18:59 48.08136 14.17193 2294 ft 85 kts 93°
2026-05-05 18:59 48.08139 14.18125 2187 ft 93 kts 85°
2026-05-05 18:59 48.08134 14.19059 2157 ft 93 kts 95°
2026-05-05 18:59 48.08077 14.20034 2145 ft 89 kts 94°
2026-05-05 19:00 48.08057 14.20923 2161 ft 83 kts 92°
2026-05-05 19:00 48.08044 14.21493 2185 ft 83 kts 93°
2026-05-05 19:00 48.07978 14.22673 2179 ft 87 kts 95°
2026-05-05 19:00 48.07929 14.23262 2176 ft 86 kts 97°
2026-05-05 19:01 48.07847 14.24151 2219 ft 85 kts 97°
2026-05-05 19:01 48.07767 14.24988 2274 ft 80 kts 96°
2026-05-05 19:01 48.07697 14.25848 2307 ft 88 kts 95°
2026-05-05 19:01 48.07650 14.26795 2301 ft 92 kts 92°
2026-05-05 19:02 48.07631 14.27741 2254 ft 89 kts 91°
2026-05-05 19:02 48.07613 14.28660 2215 ft 86 kts 91°
2026-05-05 19:02 48.07663 14.29566 2123 ft 87 kts 80°
2026-05-05 19:02 48.07744 14.30444 2071 ft 85 kts 83°
2026-05-05 19:03 48.07844 14.31312 1993 ft 85 kts 75°
2026-05-05 19:03 48.08055 14.32152 1909 ft 86 kts 66°
2026-05-05 19:03 48.08359 14.32897 1885 ft 83 kts 48°
2026-05-05 19:03 48.08783 14.33457 1911 ft 80 kts 30°
2026-05-05 19:04 48.09287 14.33813 1933 ft 80 kts 20°
2026-05-05 19:04 48.09810 14.34079 1965 ft 80 kts 17°
2026-05-05 19:04 48.10335 14.34293 2016 ft 77 kts 29°
2026-05-05 19:04 48.10524 14.34975 2063 ft 76 kts 114°
2026-05-05 19:05 48.10091 14.35273 2068 ft 77 kts 212°
2026-05-05 19:05 48.10032 14.34610 2047 ft 81 kts 323°
2026-05-05 19:05 48.10578 14.34598 2048 ft 79 kts 18°
2026-05-05 19:05 48.11060 14.34999 2066 ft 80 kts 38°
2026-05-05 19:06 48.11309 14.35744 2030 ft 86 kts 89°
2026-05-05 19:06 48.11325 14.36586 2019 ft 79 kts 90°
2026-05-05 19:06 48.11437 14.37369 1991 ft 77 kts 57°
2026-05-05 19:06 48.11901 14.37819 1839 ft 87 kts 21°
2026-05-05 19:07 48.12478 14.37899 1676 ft 77 kts 348°
2026-05-05 19:07 48.12945 14.37687 1615 ft 69 kts 334°
2026-05-05 19:07 48.13421 14.37460 1591 ft 76 kts 336°
2026-05-05 19:07 48.13915 14.37155 1532 ft 74 kts 316°
2026-05-05 19:08 48.14154 14.36521 1462 ft 71 kts 277°
2026-05-05 19:08 48.14151 14.35795 1392 ft 71 kts 263°
2026-05-05 19:08 48.14078 14.35073 1344 ft 70 kts 263°
2026-05-05 19:08 48.13995 14.34345 1273 ft 71 kts 264°
2026-05-05 19:09 48.13921 14.33700 1194 ft 55 kts 264°
2026-05-05 19:09 48.13860 14.33144 1237 ft 54 kts 264°
2026-05-05 19:09 48.13780 14.32500 1318 ft 67 kts 262°
2026-05-05 19:09 48.13710 14.31807 1479 ft 72 kts 264°
2026-05-05 19:10 48.13663 14.31007 1593 ft 78 kts 262°
2026-05-05 19:10 48.13596 14.30194 1681 ft 79 kts 262°
2026-05-05 19:10 48.13391 14.29481 1815 ft 77 kts 207°
2026-05-05 19:10 48.12841 14.29482 1862 ft 87 kts 167°
2026-05-05 19:11 48.12212 14.29625 1917 ft 92 kts 172°
2026-05-05 19:11 48.11585 14.29755 1960 ft 92 kts 170°
2026-05-05 19:11 48.10952 14.29911 1981 ft 94 kts 171°
2026-05-05 19:11 48.10390 14.30337 2007 ft 93 kts 121°
2026-05-05 19:12 48.10351 14.31272 1965 ft 89 kts 77°
2026-05-05 19:12 48.10478 14.32176 1934 ft 89 kts 77°
2026-05-05 19:12 48.10596 14.33089 1937 ft 90 kts 79°
2026-05-05 19:12 48.10709 14.34040 1949 ft 94 kts 82°
2026-05-05 19:13 48.10794 14.35019 1961 ft 94 kts 83°
2026-05-05 19:13 48.10885 14.36007 1919 ft 98 kts 83°
2026-05-05 19:13 48.11110 14.36960 1824 ft 99 kts 53°
2026-05-05 19:13 48.11696 14.37376 1711 ft 98 kts 351°
2026-05-05 19:14 48.12357 14.37180 1635 ft 96 kts 349°
2026-05-05 19:14 48.13014 14.36985 1572 ft 97 kts 349°
2026-05-05 19:14 48.13669 14.36761 1510 ft 95 kts 337°
2026-05-05 19:14 48.14060 14.36087 1479 ft 85 kts 283°
2026-05-05 19:15 48.14091 14.35274 1379 ft 69 kts 269°
2026-05-05 19:15 48.14025 14.34631 1300 ft 54 kts 261°
2026-05-05 19:15 48.13970 14.34135 1214 ft 43 kts 261°
2026-05-05 19:15 48.13931 14.33781 1185 ft 30 kts 259°
2026-05-05 19:16 48.13903 14.33507 1186 ft 22 kts 259°
2026-05-05 19:16 48.13890 14.33351 1188 ft 6 kts 310°
2026-05-05 19:16 48.13909 14.33340 1187 ft 5 kts 317°
2026-05-05 19:16 48.13924 14.33308 1186 ft 4 kts 285°
2026-05-05 19:17 48.13923 14.33304 1187 ft 0 kts 162°